TimeCST,TemperatureF,Dew PointF,Humidity,Sea Level PressureIn,VisibilityMPH,Wind Direction,Wind SpeedMPH,Gust SpeedMPH,PrecipitationIn,Events,Conditions,WindDirDegrees,DateUTC
12:15 AM,53.6,50.0,88,29.84,10.0,SSW,8.1,18.4,N/A,,Overcast,210,2012-12-02 06:15:00
12:35 AM,53.6,50.0,88,29.84,10.0,SSW,10.4,-,N/A,,Overcast,210,2012-12-02 06:35:00
12:55 AM,53.6,50.0,88,29.85,10.0,SSW,11.5,17.3,N/A,,Overcast,210,2012-12-02 06:55:00
1:15 AM,53.6,50.0,88,29.85,10.0,SW,10.4,-,N/A,,Overcast,220,2012-12-02 07:15:00
1:35 AM,53.6,50.0,88,29.85,10.0,SSW,6.9,-,N/A,Rain,Light Rain,210,2012-12-02 07:35:00
1:55 AM,53.6,50.0,88,29.85,7.0,SSW,8.1,-,N/A,,Overcast,210,2012-12-02 07:55:00
2:15 AM,53.6,50.0,88,29.85,10.0,SSW,9.2,-,N/A,,Overcast,210,2012-12-02 08:15:00
2:35 AM,53.6,50.0,88,29.85,10.0,SSW,9.2,-,N/A,,Overcast,210,2012-12-02 08:35:00
2:55 AM,53.6,50.0,88,29.85,7.0,SW,8.1,-,N/A,,Overcast,220,2012-12-02 08:55:00
3:15 AM,53.6,51.8,94,29.85,7.0,SW,9.2,-,N/A,,Overcast,220,2012-12-02 09:15:00
3:35 AM,53.6,50.0,88,29.85,7.0,SW,5.8,-,N/A,,Overcast,220,2012-12-02 09:35:00
3:55 AM,53.6,51.8,94,29.85,7.0,WSW,8.1,-,N/A,,Overcast,240,2012-12-02 09:55:00
4:15 AM,53.6,51.8,94,29.85,7.0,WSW,6.9,-,N/A,,Overcast,250,2012-12-02 10:15:00
4:35 AM,53.6,51.8,94,29.85,7.0,WSW,6.9,-,N/A,,Overcast,240,2012-12-02 10:35:00
5:45 AM,53.6,51.8,94,29.87,5.0,North,-9999.0,-,N/A,,Overcast,0,2012-12-02 11:45:00
6:45 AM,51.8,51.8,100,29.90,3.0,West,6.9,-,N/A,,Overcast,270,2012-12-02 12:45:00
7:45 AM,51.8,50.0,94,29.92,3.0,West,6.9,-,N/A,,Overcast,280,2012-12-02 13:45:00
8:45 AM,51.8,48.2,88,29.95,4.0,WNW,6.9,-,N/A,,Mostly Cloudy,300,2012-12-02 14:45:00
9:45 AM,51.8,46.4,82,29.97,5.0,WNW,10.4,-,N/A,,Haze,300,2012-12-02 15:45:00
10:45 AM,51.8,46.4,82,29.98,7.0,WNW,8.1,-,N/A,,Haze,290,2012-12-02 16:45:00
11:45 AM,51.8,46.4,82,29.98,7.0,NW,9.2,-,N/A,,Haze,320,2012-12-02 17:45:00
12:45 PM,53.6,44.6,72,29.98,7.0,West,8.1,-,N/A,,Scattered Clouds,280,2012-12-02 18:45:00
1:45 PM,53.6,44.6,72,29.88,7.0,WNW,6.9,-,N/A,,Scattered Clouds,300,2012-12-02 19:45:00
2:45 PM,51.8,44.6,76,29.99,7.0,North,3.5,-,N/A,,Clear,350,2012-12-02 20:45:00
3:45 PM,50.0,42.8,76,30.00,5.0,NW,3.5,-,N/A,,Haze,310,2012-12-02 21:45:00
4:45 PM,42.8,39.2,87,30.03,4.0,SE,5.8,-,N/A,,Clear,130,2012-12-02 22:45:00
5:45 PM,41.0,39.2,93,30.06,4.0,East,9.2,-,N/A,,Clear,90,2012-12-02 23:45:00
7:47 PM,37.4,35.6,93,30.07,2.5,ESE,4.6,-,N/A,,Mostly Cloudy,110,2012-12-03 01:47:00
8:15 PM,39.2,39.2,100,30.07,2.5,ESE,6.9,-,N/A,,Overcast,120,2012-12-03 02:15:00
8:35 PM,39.2,39.2,100,30.06,2.0,ESE,5.8,-,N/A,,Overcast,120,2012-12-03 02:35:00
8:45 PM,39.2,39.2,100,30.06,2.0,ESE,6.9,-,N/A,,Mostly Cloudy,120,2012-12-03 02:45:00
8:55 PM,37.4,37.4,100,30.06,2.0,ESE,5.8,-,N/A,,Scattered Clouds,120,2012-12-03 02:55:00
9:15 PM,37.4,37.4,100,30.05,2.0,ESE,5.8,-,N/A,,Clear,120,2012-12-03 03:15:00
9:35 PM,37.4,37.4,100,30.05,2.5,ESE,6.9,-,N/A,,Clear,120,2012-12-03 03:35:00
9:55 PM,37.4,37.4,100,30.05,2.0,ESE,5.8,-,N/A,,Clear,110,2012-12-03 03:55:00
10:15 PM,37.4,37.4,100,30.05,2.0,East,3.5,-,N/A,,Mostly Cloudy,100,2012-12-03 04:15:00
10:55 PM,39.2,39.2,100,30.06,2.0,East,5.8,-,N/A,,Overcast,100,2012-12-03 04:55:00
11:15 PM,39.2,39.2,100,30.07,2.0,East,3.5,-,N/A,,Overcast,90,2012-12-03 05:15:00
11:35 PM,41.0,39.2,93,30.06,2.0,ESE,5.8,-,N/A,,Overcast,120,2012-12-03 05:35:00
11:55 PM,41.0,41.0,100,30.06,1.5,SE,4.6,-,N/A,,Overcast,130,2012-12-03 05:55:00